Regional Weather Roundup
Issued by NWS

Home | Current Version | Previous Version | Graphics & Text | Print | Product List | Glossary On
Versions: 1 2 3 4 5 6 7 8 9 10 11 12 13 14 15 16 17 18 19 20 21 22 23 24 25 26 27 28 29 30 31 32 33 34 35 36 37 38 39 40 41 42 43 44 45 46 47 48 49 50
000
ASUS43 KMKX 301300
RWRWI

WISCONSIN REGIONAL WEATHER ROUNDUP
NATIONAL WEATHER SERVICE MILWAUKEE/SULLIVAN WI
800 AM CDT FRI SEP 30 2016

NOTE: "FAIR" INDICATES FEW OR NO CLOUDS BELOW 12,000 FEET WITH NO
SIGNIFICANT WEATHER AND/OR OBSTRUCTIONS TO VISIBILITY.

WIZ001-002-006>008-014>016-023>028-301400-
NORTHWEST WISCONSIN

CITY           SKY/WX    TMP DP  RH WIND       PRES   REMARKS
SUPERIOR ARPT  CLOUDY    52  49  91 CALM      30.45R
ASHLAND        CLOUDY    53  51  93 E7        30.46R
HAYWARD        CLOUDY    49  47  93 NE6       30.43S
SIREN          CLOUDY    50  49  94 NE6       30.41F
CUMBERLAND     CLEAR     46  45  93 N5        30.41R
RICE LAKE      MOCLDY    48  47  97 CALM      30.41S FOG
CHETEK         NOT AVBL
LADYSMITH      MOCLDY    48  47  98 N5        30.42S FOG
EAU CLAIRE     NOT AVBL
MENOMONIE      CLEAR     48  48  98 CALM      30.39S FOG
NEW RICHMOND   CLEAR     46  46 100 CALM      30.39R FOG
OSCEOLA        FOG       46  46 100 CALM      30.42S VSB<1/4
$$

WIZ003>005-009-010-017-018-301400-
NORTH CENTRAL WISCONSIN

CITY           SKY/WX    TMP DP  RH WIND       PRES   REMARKS
MANITOWISH WTR NOT AVBL
ARBOR VITAE    CLOUDY    52  51  97 N5        30.41S FOG
WOODRUFF       CLOUDY    52  51  97 N5        30.41S FOG
RHINELANDER    SUNNY     49  49 100 NE6       30.40S
EAGLE RIVER    FOG       47  47 100 N8        30.41S VSB 1/4
LAND O LAKES   FOG       50  50 100 N7        30.44S VSB 1/2
PHILLIPS       FOG       46  46 100 NE6       30.40F VSB 3/4
TOMAHAWK       SUNNY     46  45  97 CALM      30.40S
MEDFORD        CLEAR    N/A N/A N/A N5        30.37S
MERRILL        CLOUDY    48  48 100 N5        30.38S
$$

WIZ029-030-035-036-043>047-301400-
CENTRAL WISCONSIN

CITY           SKY/WX    TMP DP  RH WIND       PRES   REMARKS
WAUSAU         CLOUDY    51  48  89 N6        30.34S
MOSINEE        CLOUDY    52  50  93 N10       30.34S
MARSHFIELD     CLOUDY    54  48  80 NE8       30.33F
STEVENS POINT  CLOUDY    49  49  99 N5        30.33S
WAUPACA        PTSUNNY   58  55  89 N6        30.30F
WAUTOMA        CLOUDY    56  54  93 N7        30.29F
WISC RAPIDS    CLOUDY    54  51  90 NE9       30.33S
CAMP DOUGLAS   NOT AVBL
$$

WIZ011>013-019>022-031-037>040-048>050-301400-
NORTHEAST WISCONSIN

CITY           SKY/WX    TMP DP  RH WIND       PRES   REMARKS
ANTIGO         CLOUDY    51  50  95 NE9       30.37R
SHAWANO        CLOUDY    58  53  85 NE14      30.32F
OCONTO         NOT AVBL
STURGEON BAY   CLOUDY    62  57  83 NE12      30.31S
GREEN BAY      CLOUDY    59  59 100 N14       30.28F
MANITOWOC      NOT AVBL
APPLETON       CLOUDY    57  55  94 N14       30.27S
CLINTONVILLE   PTSUNNY   55  52  88 N8        30.31S
OSHKOSH        CLOUDY    59  56  89 NE15      30.25F
$$

WIZ032>034-041-042-053>061-301400-
SOUTHWEST WISCONSIN

CITY           SKY/WX    TMP DP  RH WIND       PRES   REMARKS
LA CROSSE      MOCLDY    55  52  89 NW9       30.32S
SPARTA         CLOUDY    51  49  95 NE5       30.33S
VIROQUA        CLOUDY    53  51  94 N6        30.30S
BOSCOBEL       CLOUDY    59  53  80 NE6       30.28R
PRAIRIE DU CHI CLOUDY    57  52  81 N6        30.27F
PLATTEVILLE    CLOUDY    57  57  99 N12       30.25R
$$

WIZ056-057-062-063-064-067-068-301400-
SOUTH CENTRAL WISCONSIN

CITY           SKY/WX    TMP DP  RH WIND       PRES   REMARKS
REEDSBURG      NOT AVBL
BARABOO/DELLS  CLOUDY    56  53  87 NE6       30.28S
LONE ROCK      NOT AVBL
MINERAL POINT  CLOUDY    57  55  94 N6        30.26R
MADISON        CLOUDY    58  56  93 N9        30.24S
MIDDLETON      CLOUDY    58  58  99 N10       30.25S
WATERTOWN      CLOUDY    59  58  96 NE7       30.23S
MONROE         CLOUDY    55  55 100 N10       30.22S FOG
JANESVILLE     CLOUDY    61  57  88 N9        30.20S
$$

WIZ051-052-058>065-066-070>072-301400-
SOUTHEAST WISCONSIN

CITY           SKY/WX    TMP DP  RH WIND       PRES   REMARKS
MILWAUKEE      LGT RAIN  59  57  93 N10       30.21F
WAUKESHA       RAIN      57  55  94 NE15G22   30.23S
MILWAUKEE/TIMM LGT RAIN  59  55  88 NE9       30.23F
RACINE         LGT RAIN  61  58  90 NE15      30.21F
BURLINGTON     CLOUDY    57  56  95 N9        30.19F
KENOSHA        LGT RAIN  60  58  92 N9        30.19F FOG
FOND DU LAC    CLOUDY    60  57  89 NE15      30.26S
SHEBOYGAN      LGT RAIN  60  56  86 NE18      30.25R
WEST BEND      DRIZZLE   64  64 100 NE10      30.24S
JUNEAU         CLOUDY    58  55  89 N8        30.25R
$$

LSZ147-162-301400-
LAKE SUPERIOR

STATION/POSITION TIME  TEMP    WIND        PRES    WAVE
                       AIR SEA DIR/SP/G            HT/PER
                 (UTC) (F)     (DEG/KT/KT) (MB)    (FT/S)
W MID LAKE BUOY  1150   56 55   40/ 10/ 12 1030.6F   1/ 5
DEVILS ISLAND    1200   54      40/  7/  8 1031.5F
SAXON HARBOR     1200   51     180/  3/  5 1030.8R
$$

LMZ867-665-643>646-301400-
LAKE MICHIGAN

STATION/POSITION TIME  TEMP    WIND        PRES    WAVE
                       AIR SEA DIR/SP/G            HT/PER
                 (UTC) (F)     (DEG/KT/KT) (MB)    (FT/S)
CHAMBERS ISLAND  1200   62      20/ 15/ 18 1026.4F
N MID LAKE BUOY  1150   63 65   70/ 17/ 21 1026.3F   4/ 5
NORTHPORT PIER   1100   63      60/ 16/ 20 1027.1R
SISTER BAY       1208   62      30/  6/ 11   N/A
KEWAUNEE LAKESHO 1200   62      40/ 11/ 16 1024.6F
SHEBOYGAN LAKESH 1200   61      40/ 17/ 19 1023.7F
PORT WASHINGTON  1200   60      50/ 12/ 16 1024.4R
ATWATER BUOY     1200   56 52   30/ 10/ 12 1023.1S
MILWAUKEE LAKESH 1210   58      20/ 14/ 16   N/A
S MID LAKE BUOY  1150   62 68   60/ 19/ 21 1021.0F   5/ 6
KENOSHA   LAKESH 1200   62      40/ 17/ 20 1022.0R
$$

TC  - TEMPERATURE IN CELSIUS
VSB - VISIBILITY IN STATUTE MILES
WCI - WIND CHILL INDEX
HX  - HEAT INDEX




USA.gov is the U.S. government's official web portal to all federal, state and local government web resources and services.